AirNav   Air Wisconsin Up To $57,000 Bonus
 
 1253 users online  

2O3 Angwin Airport-Parrett Field
Angwin, California, USA

GOING TO ANGWIN?


FAA INFORMATION EFFECTIVE 05 NOVEMBER 2020

Location

FAA Identifier: 2O3
Lat/Long: 38-34-48.1000N 122-26-07.7000W
38-34.801667N 122-26.128333W
38.5800278,-122.4354722
(estimated)
Elevation: 1875 ft. / 572 m (estimated)
Variation: 16E (1985)
From city: 1 mile E of ANGWIN, CA
Time zone: UTC -8 (UTC -7 during Daylight Saving Time)
Zip code: 94508

Airport Operations

Airport use: Open to the public
Activation date: 03/1961
Control tower: no
ARTCC: OAKLAND CENTER
FSS: OAKLAND FLIGHT SERVICE STATION
NOTAMs facility: OAK (NOTAM-D service available)
Attendance: SUN-FRI 0800-1700
Pattern altitude: 2725 ft. MSL
Wind indicator: lighted
Segmented circle: yes
Lights: ACTVT LIRL RY 16/34 AND TRVC RYS 16 & 34 - CTAF.

Airport Communications

CTAF/UNICOM: 123.0
WX ASOS at STS (18 nm W): 120.55 (707-573-8393)

Nearby radio navigation aids

VOR radial/distance  VOR name  Freq  Var
STSr060/18.1SANTA ROSA VOR/DME113.0016E
SGDr336/24.2SCAGGS ISLAND VORTAC112.1017E
ILAr195/35.1WILLIAMS VORTAC114.4018E
PYEr017/36.3POINT REYES VOR/DME113.7017E
CCRr313/37.0CONCORD VOR/DME117.0017E

Airport Services

Fuel available: 100LL
Parking: tiedowns
Airframe service: MAJOR
Powerplant service: MAJOR
Bottled oxygen: NONE
Bulk oxygen: HIGH/LOW

Runway Information

Runway 16/34

Dimensions: 3217 x 50 ft. / 981 x 15 m
Surface: asphalt, in fair condition
Runway edge lights: low intensity
RUNWAY 16  RUNWAY 34
Latitude: 38-35.065500N38-34.537833N
Longitude: 122-26.162333W122-26.095500W
Elevation: 1875.0 ft.1841.0 ft.
Traffic pattern: leftright
Markings: basic, in good conditionbasic, in good condition
Visual slope indicator: tri-color VASI on left (5.00 degrees glide path)tri-color VASI on right (5.00 degrees glide path)
Runway end identifier lights: nono
Obstructions: 50 ft. tree, 1000 ft. from runway, 210 ft. left of centerline, 16:1 slope to clear100 ft. trees, 2100 ft. from runway, 330 ft. right of centerline, 19:1 slope to clear

Airport Ownership and Management from official FAA records

Ownership: Privately-owned
Owner: PACIFIC UNION COLLEGE
1 ANGWIN AVENUE
ANGWIN, CA 94508
Phone 707-965-6219
Manager: KEUNSANG CHO
1 ANGWIN AVENUE
ANGWIN, CA 94508
Phone 707-965-6219

Airport Operational Statistics

Aircraft based on the field: 44
Single engine airplanes: 38
Multi engine airplanes: 4
Ultralights: 2
    
Aircraft operations: avg 27/day *
80% local general aviation
20% transient general aviation
* for 12-month period ending 31 December 2017

Additional Remarks

FOR CD CTC OAKLAND ARTCC AT 510-745-3380.

Instrument Procedures

There are no published instrument procedures at 2O3.

Some nearby airports with instrument procedures:

KSTS - Charles M Schulz - Sonoma County Airport (18 nm W)
O69 - Petaluma Municipal Airport (21 nm S)
KAPC - Napa County Airport (23 nm S)
KVCB - Nut Tree Airport (25 nm SE)
KDVO - Gnoss Field Airport (27 nm S)
 
Loc | Ops | Rwys | IFR | FBO | Links
Com | Nav | Svcs | Stats | Notes

Sonoma Jet Center
 
Area around 2O3 (Angwin Airport-Parrett Field)
 
Road maps at: MapQuest Bing Google
 
Aerial photo
WARNING: Photo may not be current or correct
Aerial photo of 2O3 (Angwin Airport-Parrett Field)
Photo courtesy of Pilot Getaways magazine
www.pilotgetaways.com/

Do you have a better or more recent aerial photo of Angwin Airport-Parrett Field that you would like to share? If so, please send us your photo.

 
Sectional chart

 
Airport distance calculator
Flying to Angwin Airport-Parrett Field? Find the distance to fly.

From to 2O3

Sunrise and sunset
Times for 30-Nov-2020
 Local
(UTC-8)
 Zulu
(UTC)
Morning civil twilight06:4014:40
Sunrise07:1015:10
Sunset16:4800:48
Evening civil twilight17:1701:17

Current date and time
Zulu (UTC)  30-Nov-2020 15:19:24
Local (UTC-8)  30-Nov-2020 07:19:24
 
METAR
KSTS 
19nm W 
707-573-8393
301453Z 00000KT 9SM CLR M02/M03 A3029 RMK AO2 SLP253 T10171028 51011
KO69 
21nm S 
301455Z AUTO 31003KT 10SM CLR 02/01 A3030 RMK A01
KAPC 
24nm S 
301454Z 13004KT 10SM CLR 00/M02 A3029 RMK AO2 SLP248 T00001017 51013
KVCB 
26nm SE 
301453Z AUTO 00000KT 10SM CLR 01/M01 A3030 RMK AO2 SLP262 T00111011 51014
KDVO 
27nm S 
301455Z AUTO 00000KT M1/4SM FG OVC002 04/04 A3029 RMK AO2
KDWA 
27nm E 
301455Z AUTO 00000KT 10SM CLR 01/M05 A3031 RMK AO2
KEDU 
31nm E 
301455Z AUTO 00000KT 10SM CLR 01/M02 A3030 RMK AO1
KSUU 
31nm SE 
301358Z 00000KT 10SM CLR 00/M02 A3028 RMK AO2A SLP261 T10021021 $
TAF
KSTS 
19nm W 
301129Z 3012/0112 00000KT P6SM SKC FM302000 VRB03KT P6SM SKC FM302200 21007KT P6SM SKC FM010300 34004KT P6SM SKC
NOTAMs
Click for the latest NOTAMs
NOTAMs are issued by the DoD/FAA and will open in a separate window not controlled by AirNav.

 

 
 

FBO, Fuel Providers, and Aircraft Ground Support

  
 Business Name 
 
 Contact 
 
 Services / Description 
 
Fuel Prices
 
Comments
  
PUC (Pacific Union College) Flight Center 707-965-6219
no information available

If you are affiliated with PUC (Pacific Union College) Flight Center and would like to show here your services, contact info, web link, logo, and more, click here
100LL
FS $4.59 
 Updated 24-Sep-2020
 
   write
FS=Full service
Update Fuel Prices
 

Would you like to see your business listed on this page?

 If your business provides an interesting product or service to pilots, flight crews, aircraft, or users of the Angwin Airport-Parrett Field, you should consider listing it here.  To start the listing process, click on the button below
 
Add a business
 

Other Pages about Angwin Airport-Parrett Field

www.down-and-locked.com/...
 
Update a link
 
Copyright © AirNav, LLC. All rights reserved. Privacy Policy  Contact